This is the latest recevied weather packets stored in our database for station/object WD4ITN. If no packets are shown the sender has not sent any weather packets the latest 10 day(s).
| Time | Temp. | Humidity | Pressure | Rain* | Wind** | Luminosity | Snow |
|---|---|---|---|---|---|---|---|
| 1787696608 | 22.78° C | 65% | 1018.8 hPa | 0 mm | - | - | - |
| 1787696300 | 22.78° C | 64% | 1018.7 hPa | 0 mm | - | - | - |
| 1787696003 | 22.78° C | 63% | 1018.7 hPa | 0 mm | - | - | - |
| 1787695702 | 23.33° C | 62% | 1018.7 hPa | 0 mm | - | - | - |
| 1787695403 | 23.33° C | 61% | 1018.7 hPa | 0 mm | - | - | - |
| 1787695101 | 23.89° C | 60% | 1018.8 hPa | 0 mm | - | - | - |
| 1787694803 | 23.89° C | 57% | 1018.7 hPa | 0 mm | - | - | - |
| 1787694499 | 23.89° C | 57% | 1018.7 hPa | 0 mm | - | - | - |
| 1787694198 | 23.89° C | 57% | 1018.6 hPa | 0 mm | - | - | - |
| 1787693918 | 23.89° C | 56% | 1018.6 hPa | 0 mm | - | - | - |
| 1787693616 | 23.89° C | 56% | 1018.6 hPa | 0 mm | - | - | - |
| 1787693309 | 23.89° C | 56% | 1018.6 hPa | 0 mm | - | - | - |
| 1787693006 | 23.89° C | 56% | 1018.7 hPa | 0 mm | - | - | - |
| 1787692704 | 23.89° C | 59% | 1018.7 hPa | 0 mm | - | - | - |
| 1787692401 | 23.33° C | 54% | 1018.8 hPa | 0 mm | - | - | - |
| 1787692117 | 23.89° C | 55% | 1018.8 hPa | 0 mm | - | - | - |
| 1787691806 | 23.89° C | 55% | 1018.7 hPa | 0 mm | - | - | - |
| 1787691504 | 24.44° C | 55% | 1018.8 hPa | 0 mm | - | - | - |
| 1787691210 | 24.44° C | 54% | 1018.8 hPa | 0 mm | - | - | - |
| 1787690909 | 24.44° C | 53% | 1018.7 hPa | 0 mm | - | - | - |
| 1787690601 | 24.44° C | 55% | 1018.7 hPa | 0 mm | - | - | - |
| 1787690299 | 24.44° C | 55% | 1018.7 hPa | 0 mm | - | - | - |
| 1787689997 | 24.44° C | 56% | 1018.7 hPa | 0 mm | - | - | - |
| 1787689712 | 24.44° C | 57% | 1018.7 hPa | 0 mm | - | - | - |
| 1787689408 | 23.89° C | 56% | 1018.7 hPa | 0 mm | - | - | - |
* Rain since midnight (hover to see other rain measurements)
** Current wind speed in m/s (hover to see current wind gust speed)